Starlink 32673

operational
NORAD ID: 63000 Int'l Des: 2025-031 Owner: SPXS Country: US Constellation: starlink
LEOCIRCULAR

About Starlink 32673

Description loading...

Live Position

Loading 3D Globe...

Upcoming Passes

Altitude History

Altitude vs Time

uPlot chart will show altitude changes over time

Two-Line Element Set

1 63000U 25031V 25302.97908412 .00035404 00000-0 12892-2 0 9992
2 63000 43.0009 161.6135 0001627 277.0043 83.0624 15.27598813 41107
Epoch: Oct 29, 2025 • Age: 41 hours

Current Status

Altitude 486.8 km
Velocity 7.63 km/s
Sub-Earth Point 43.16°N, 48.3°W
Launch Date Feb 11, 2025
Age 0.7 years
Type internet

Technical Details

Classification Payload
Mass 730.00 kg
Dry Mass 700.00 kg
Total Mass 730.00 kg
Length 0.30 m
Diameter 4.10 m
Span 29.00 m
Shape Box + pan
Manufacturer SPXS
Bus Type Starlink V2M
Phase Status In Orbit
Owner/State SPXS/US

Large Constellations

Loading constellations...